Weather History for KBMG - March, 2014

Change the Weather History Date:

Saturday, March 29, 2014

  Actual Average Record
Temperature  
Mean Temperature 40 °F 48 °F  
Max Temperature 43 °F 59 °F 80 °F (1998)
Min Temperature 36 °F 36 °F 23 °F (2015)
Degree Days  
Heating Degree Days 25 17  
Month to date heating degree days 799 654  
Since 1 July heating degree days 5361 4722  
Cooling Degree Days 0 0  
Month to date cooling degree days 0 0  
Year to date cooling degree days 0 0  
Moisture  
Dew Point 35 °F    
Average Humidity 83    
Maximum Humidity 92    
Minimum Humidity 73    
Precipitation  
Precipitation 0.76 in 0.18 in 0.76 in (2014)
Month to date precipitation 1.94 3.51  
Year to date precipitation 6.59 9.58  
Sea Level Pressure  
Sea Level Pressure 30.07 in    
Wind  
Wind Speed 11 mph (North)    
Max Wind Speed 18 mph    
Max Gust Speed 25 mph    
Visibility 3 miles    
Events Rain    
T = Trace of Precipitation, MM = Missing Value Source: NWS Daily Summary

Daily Weather History Graph

Daily Weather History Graph

Search for Another Location

Airport or City:

Trip Planner

Search our weather history database for the weather conditions in past years. The results will help you decide how hot, cold, wet, or windy it might be!

Date:

Astronomy

Mar. 29, 2014 Rise Set
Actual Time 7:35 AM EDT 8:07 PM EDT
Civil Twilight 7:08 AM EDT 8:34 PM EDT
Nautical Twilight 6:37 AM EDT 9:05 PM EDT
Astronomical Twilight 6:04 AM EDT 9:38 PM EDT
Moon 6:43 AM EDT (3/29) 7:12 PM EDT (3/29)
Length of Visible Light 13h 25m
Length of Day
12h 31m
Waning Crescent, 2% of the Moon is Illuminated
Mar 29
Waning Crescent
Mar 30
New
Apr 7
First Quarter
Apr 15
Full
Apr 22
Last Quarter

Hourly Weather History & Observations

Time (EDT) Temp. Windchill Dew Point Humidity Pressure Visibility Wind Dir Wind Speed Gust Speed Precip Events Conditions
12:53 AM 43.0 °F 37.7 °F 36.0 °F 76% 30.07 in - NE 9.2 mph - N/A   Clear
1:53 AM 42.1 °F 35.7 °F 35.1 °F 76% 30.06 in - NE 11.5 mph - N/A   Mostly Cloudy
2:53 AM 41.0 °F 35.2 °F 34.0 °F 76% 30.04 in - NE 9.2 mph - N/A   Overcast
3:53 AM 39.9 °F 33.9 °F 35.1 °F 83% 30.05 in - North 9.2 mph - 0.01 in Rain Light Rain
4:53 AM 37.9 °F 30.0 °F 35.1 °F 89% 30.02 in - North 12.7 mph - 0.18 in Rain Rain
5:53 AM 37.0 °F 29.8 °F 35.1 °F 93% 30.02 in - NNE 10.4 mph - 0.15 in Rain Rain
6:00 AM 37.0 °F 31.0 °F 35.1 °F 93% 30.01 in - North 8.1 mph - 0.01 in Rain Rain
6:13 AM 37.0 °F 29.8 °F 35.1 °F 93% 30.02 in - North 10.4 mph - 0.05 in Rain Rain
6:53 AM 37.0 °F 28.5 °F 34.0 °F 89% 30.01 in 4.0 mi North 13.8 mph - 0.17 in Rain Light Rain
7:53 AM 36.0 °F 26.0 °F 34.0 °F 93% 30.00 in 4.0 mi North 17.3 mph - 0.09 in Rain Light Rain
8:53 AM 37.0 °F 29.3 °F 35.1 °F 93% 30.02 in 3.0 mi North 11.5 mph - 0.06 in Rain Light Rain
9:53 AM 37.9 °F 30.5 °F 35.1 °F 89% 30.04 in 3.0 mi North 11.5 mph - 0.04 in Rain Light Rain
10:06 AM 37.9 °F 29.6 °F 35.1 °F 89% 30.03 in 2.0 mi North 13.8 mph - 0.00 in Rain Light Rain
10:53 AM 37.9 °F 30.5 °F 36.0 °F 93% 30.05 in 2.0 mi North 11.5 mph - 0.03 in Rain Light Rain
11:53 AM 39.0 °F 30.6 °F 36.0 °F 89% 30.04 in 2.0 mi NNE 15.0 mph - 0.03 in Rain Light Rain
12:00 PM 39.0 °F 32.3 °F 37.0 °F 93% 30.02 in - NE 10.4 mph - 0.00 in Rain Light Rain
12:07 PM 39.0 °F 31.0 °F 36.0 °F 89% 30.02 in 2.5 mi NNE 13.8 mph - 0.00 in Rain Light Rain
12:53 PM 39.0 °F 32.8 °F 36.0 °F 89% 30.04 in 2.5 mi NNW 9.2 mph - 0.00 in   Overcast
1:00 PM 39.0 °F 32.8 °F 36.0 °F 89% 30.03 in 3.0 mi NNW 9.2 mph - N/A   Overcast
1:53 PM 37.9 °F 30.0 °F 35.1 °F 89% 30.04 in 3.0 mi NNW 12.7 mph 20.7 mph N/A   Overcast
2:05 PM 37.0 °F 29.8 °F 34.0 °F 89% 30.03 in 2.5 mi NNW 10.4 mph 20.7 mph N/A   Overcast
2:31 PM 36.0 °F 28.5 °F 34.0 °F 93% 30.03 in 2.0 mi NNW 10.4 mph 20.7 mph N/A   Overcast
2:53 PM 36.0 °F 27.1 °F 34.0 °F 93% 30.05 in 2.0 mi North 13.8 mph 20.7 mph N/A   Overcast
3:53 PM 37.9 °F 28.9 °F 34.0 °F 86% 30.06 in 2.0 mi North 16.1 mph 24.2 mph N/A   Overcast
4:53 PM 39.0 °F 31.8 °F 34.0 °F 82% 30.08 in 2.0 mi North 11.5 mph 20.7 mph N/A   Haze
5:00 PM 39.0 °F 32.8 °F 34.0 °F 82% 30.07 in 3.0 mi NNW 9.2 mph 18.4 mph N/A   Haze
5:53 PM 39.0 °F 32.8 °F 34.0 °F 82% 30.11 in 4.0 mi NNW 9.2 mph 17.3 mph N/A   Haze
6:53 PM 39.0 °F 33.4 °F 34.0 °F 82% 30.14 in 4.0 mi NNW 8.1 mph - N/A   Haze
7:48 PM 39.2 °F 33.6 °F 35.6 °F 87% 30.14 in 3.0 mi NNW 8.1 mph - N/A   Overcast
7:53 PM 39.0 °F 32.8 °F 35.1 °F 86% 30.17 in 3.0 mi NNW 9.2 mph - N/A   Overcast
8:53 PM 39.0 °F 31.8 °F 33.1 °F 79% 30.18 in 3.0 mi North 11.5 mph 18.4 mph N/A   Haze
9:00 PM 39.0 °F 32.8 °F 33.1 °F 79% 30.16 in 10.0 mi North 9.2 mph 16.1 mph N/A   Overcast
9:53 PM 39.0 °F 34.0 °F 33.1 °F 79% 30.19 in 10.0 mi North 6.9 mph 18.4 mph N/A   Overcast
10:53 PM 37.9 °F 31.5 °F 30.9 °F 76% 30.21 in - NNW 9.2 mph - N/A   Overcast
11:53 PM 37.0 °F 31.0 °F 30.0 °F 76% 30.21 in - NW 8.1 mph - N/A   Overcast